| time (UTC) | temp F | wind direction | speed knots | gust knots | rain 1hr in | rain 24hr in | rain mn in | humidity % | barometer mb |
| 20260507030052 | 42 | 0 | 0.0 | 1.7 | 0.00 | 0.35 | 0.35 | 95 | 1010.1 |
| 20260507024600 | 42 | 0 | 0.0 | 1.7 | 0.00 | 0.35 | 0.35 | 95 | 1010.1 |
| 20260507023051 | 42 | 0 | 0.0 | 1.7 | 0.00 | 0.35 | 0.35 | 95 | 1010.0 |
| 20260507021548 | 42 | 239 | 0.0 | 1.7 | 0.00 | 0.35 | 0.35 | 95 | 1010.4 |
| 20260507020105 | 42 | 0 | 0.0 | 1.7 | 0.00 | 0.35 | 0.35 | 95 | 1010.4 |
| 20260507014546 | 42 | 282 | 0.0 | 0.9 | 0.00 | 0.35 | 0.35 | 94 | 1010.6 |
| 20260507013052 | 42 | 0 | 0.0 | 1.7 | 0.00 | 0.35 | 0.35 | 94 | 1010.3 |
| 20260507011541 | 42 | 301 | 0.0 | 1.7 | 0.00 | 0.35 | 0.35 | 94 | 1010.6 |
| 20260507010040 | 42 | 0 | 0.0 | 1.7 | 0.00 | 0.35 | 0.35 | 94 | 1010.1 |
| 20260507004554 | 42 | 0 | 0.0 | 1.7 | 0.00 | 0.35 | 0.35 | 94 | 1010.0 |
| 20260507003048 | 42 | 309 | 0.0 | 2.6 | 0.00 | 0.35 | 0.35 | 94 | 1009.9 |
| 20260507001547 | 43 | 0 | 0.0 | 1.7 | 0.00 | 0.35 | 0.35 | 94 | 1009.8 |
| 20260507000045 | 43 | 275 | 0.9 | 2.6 | 0.00 | 0.35 | 0.35 | 94 | 1009.7 |
| 20260506234548 | 43 | 0 | 0.9 | 1.7 | 0.00 | 0.35 | 0.35 | 94 | 1009.4 |
| 20260506233058 | 43 | 309 | 0.9 | 2.6 | 0.00 | 0.35 | 0.35 | 94 | 1009.3 |
| 20260506231554 | 43 | 284 | 0.9 | 2.6 | 0.00 | 0.35 | 0.35 | 94 | 1009.4 |
| 20260506230052 | 44 | 286 | 0.0 | 1.7 | 0.00 | 0.35 | 0.35 | 94 | 1009.0 |
| 20260506224546 | 44 | 0 | 0.0 | 1.7 | 0.00 | 0.36 | 0.35 | 95 | 1009.1 |
| 20260506223046 | 44 | 0 | 0.0 | 2.6 | 0.00 | 0.36 | 0.35 | 95 | 1008.7 |
| 20260506221543 | 44 | 0 | 0.0 | 1.7 | 0.00 | 0.36 | 0.35 | 95 | 1008.9 |
| 20260506220049 | 44 | 43 | 0.0 | 3.5 | 0.00 | 0.36 | 0.35 | 94 | 1008.6 |
| 20260506214552 | 44 | 15 | 1.7 | 4.3 | 0.00 | 0.36 | 0.35 | 94 | 1008.7 |
| 20260506213058 | 45 | 316 | 0.9 | 4.3 | 0.00 | 0.36 | 0.35 | 94 | 1008.5 |
| 20260506211547 | 45 | 312 | 1.7 | 7.0 | 0.00 | 0.36 | 0.35 | 94 | 1008.2 |
| 20260506210043 | 45 | 13 | 0.9 | 3.5 | 0.00 | 0.36 | 0.35 | 95 | 1007.9 |
| 20260506204546 | 45 | 41 | 1.7 | 6.1 | 0.01 | 0.36 | 0.35 | 95 | 1007.7 |
| 20260506203048 | 45 | 309 | 0.9 | 3.5 | 0.01 | 0.36 | 0.35 | 95 | 1007.5 |
| 20260506201548 | 45 | 41 | 1.7 | 5.2 | 0.02 | 0.36 | 0.35 | 95 | 1007.0 |
| 20260506200048 | 46 | 178 | 0.9 | 2.6 | 0.02 | 0.36 | 0.35 | 95 | 1006.9 |
| 20260506194547 | 46 | 309 | 1.7 | 4.3 | 0.01 | 0.39 | 0.34 | 95 | 1006.9 |
| 20260506193043 | 46 | 26 | 0.9 | 2.6 | 0.01 | 0.39 | 0.34 | 95 | 1007.0 |
| 20260506191545 | 47 | 34 | 0.9 | 3.5 | 0.01 | 0.38 | 0.33 | 95 | 1006.7 |
| 20260506190048 | 47 | 24 | 1.7 | 3.5 | 0.01 | 0.38 | 0.33 | 95 | 1006.7 |
| 20260506184551 | 47 | 64 | 0.9 | 2.6 | 0.01 | 0.38 | 0.33 | 95 | 1006.3 |
| 20260506183053 | 47 | 0 | 0.9 | 3.5 | 0.01 | 0.38 | 0.33 | 95 | 1006.2 |
| 20260506181615 | 47 | 346 | 0.9 | 3.5 | 0.00 | 0.37 | 0.32 | 95 | 1006.1 |
| 20260506180051 | 47 | 57 | 0.9 | 3.5 | 0.00 | 0.37 | 0.32 | 95 | 1006.1 |
| 20260506174545 | 47 | 330 | 0.9 | 3.5 | 0.00 | 0.39 | 0.32 | 95 | 1005.8 |
| 20260506173057 | 48 | 51 | 0.0 | 3.5 | 0.00 | 0.39 | 0.32 | 95 | 1005.6 |
| 20260506171546 | 48 | 292 | 0.9 | 3.5 | 0.00 | 0.39 | 0.32 | 95 | 1005.6 |
| 20260506170050 | 49 | 41 | 0.9 | 2.6 | 0.01 | 0.39 | 0.32 | 95 | 1005.7 |
| 20260506164547 | 49 | 344 | 1.7 | 5.2 | 0.01 | 0.39 | 0.32 | 94 | 1005.6 |
| 20260506163045 | 52 | 312 | 1.7 | 6.1 | 0.01 | 0.39 | 0.32 | 93 | 1005.4 |
| 20260506161549 | 55 | 291 | 0.9 | 3.5 | 0.01 | 0.39 | 0.32 | 96 | 1005.3 |
| 20260506160048 | 55 | 247 | 0.9 | 3.5 | 0.00 | 0.38 | 0.31 | 96 | 1005.0 |
| 20260506154550 | 54 | 236 | 0.9 | 2.6 | 0.01 | 0.38 | 0.31 | 96 | 1005.3 |
| 20260506153106 | 54 | 249 | 1.7 | 3.5 | 0.02 | 0.38 | 0.31 | 96 | 1005.4 |
| 20260506151545 | 54 | 178 | 0.9 | 3.5 | 0.02 | 0.38 | 0.31 | 96 | 1005.3 |
| 20260506150058 | 54 | 221 | 0.9 | 3.5 | 0.03 | 0.38 | 0.31 | 96 | 1005.4 |
| 20260506144554 | 54 | 212 | 0.9 | 2.6 | 0.03 | 0.37 | 0.30 | 96 | 1005.2 |
| 20260506143048 | 54 | 205 | 0.9 | 2.6 | 0.03 | 0.36 | 0.29 | 96 | 1005.1 |
| 20260506141542 | 54 | 255 | 0.9 | 2.6 | 0.06 | 0.36 | 0.29 | 96 | 1005.2 |
| 20260506140043 | 53 | 218 | 0.9 | 3.5 | 0.07 | 0.35 | 0.28 | 96 | 1005.4 |
| 20260506134549 | 53 | 232 | 0.9 | 2.6 | 0.10 | 0.34 | 0.27 | 96 | 1005.5 |
| 20260506133044 | 52 | 209 | 0.9 | 3.5 | 0.13 | 0.33 | 0.26 | 96 | 1005.7 |
| 20260506131546 | 52 | 265 | 1.7 | 3.5 | 0.12 | 0.30 | 0.23 | 96 | 1005.9 |
| 20260506130048 | 51 | 178 | 0.9 | 2.6 | 0.10 | 0.28 | 0.21 | 96 | 1006.1 |
| 20260506124547 | 51 | 221 | 0.9 | 3.5 | 0.07 | 0.24 | 0.17 | 96 | 1006.1 |
| 20260506123047 | 51 | 221 | 0.9 | 2.6 | 0.05 | 0.20 | 0.13 | 96 | 1005.7 |
| 20260506121545 | 50 | 265 | 0.0 | 1.7 | 0.08 | 0.18 | 0.11 | 95 | 1005.6 |
| 20260506120043 | 50 | 126 | 0.9 | 2.6 | 0.08 | 0.18 | 0.11 | 95 | 1005.6 |
| 20260506114544 | 49 | 193 | 0.9 | 1.7 | 0.08 | 0.17 | 0.10 | 95 | 1005.8 |
| 20260506113044 | 49 | 76 | 0.0 | 1.7 | 0.06 | 0.15 | 0.08 | 95 | 1006.4 |
| 20260506111545 | 49 | 165 | 0.0 | 1.7 | 0.01 | 0.10 | 0.03 | 95 | 1006.5 |
| 20260506110043 | 49 | 119 | 0.0 | 1.7 | 0.02 | 0.10 | 0.03 | 95 | 1006.4 |
| 20260506104550 | 49 | 108 | 0.0 | 1.7 | 0.01 | 0.09 | 0.02 | 95 | 1006.3 |
| 20260506103053 | 48 | 105 | 0.0 | 1.7 | 0.01 | 0.09 | 0.02 | 95 | 1006.3 |
| 20260506101544 | 48 | 46 | 0.9 | 1.7 | 0.01 | 0.08 | 0.01 | 94 | 1006.1 |
| 20260506100041 | 49 | 44 | 0.9 | 1.7 | 0.01 | 0.08 | 0.01 | 94 | 1006.0 |
| 20260506094549 | 49 | 0 | 0.0 | 1.7 | 0.01 | 0.08 | 0.01 | 94 | 1006.0 |
| 20260506093042 | 49 | 316 | 0.0 | 1.7 | 0.01 | 0.08 | 0.01 | 94 | 1005.9 |
| 20260506091554 | 49 | 153 | 0.9 | 1.7 | 0.00 | 0.07 | 0.00 | 93 | 1005.9 |
| 20260506090056 | 49 | 129 | 0.0 | 2.6 | 0.00 | 0.07 | 0.00 | 93 | 1006.2 |
| 20260506084548 | 49 | 105 | 0.0 | 2.6 | 0.00 | 0.07 | 0.00 | 93 | 1006.4 |
| 20260506083048 | 49 | 265 | 1.7 | 3.5 | 0.00 | 0.07 | 0.00 | 92 | 1006.6 |
| 20260506081547 | 49 | 108 | 0.0 | 2.6 | 0.00 | 0.07 | 0.00 | 92 | 1006.6 |
| 20260506073050 | 49 | 64 | 0.9 | 3.5 | 0.00 | 0.07 | 0.00 | 90 | 1006.5 |
| 20260506071549 | 49 | 74 | 1.7 | 3.5 | 0.00 | 0.07 | 0.00 | 90 | 1006.7 |
| 20260506061544 | 50 | 93 | 0.9 | 3.5 | 0.00 | 0.07 | 0.00 | 89 | 1007.3 |
| 20260506044542 | 50 | 61 | 0.9 | 2.6 | 0.00 | 0.07 | 0.00 | 88 | 1008.5 |
| 20260506043039 | 50 | 102 | 1.7 | 2.6 | 0.00 | 0.07 | 0.00 | 88 | 1008.5 |
| 20260506041544 | 50 | 123 | 1.7 | 3.5 | 0.00 | 0.07 | 0.00 | 88 | 1008.3 |
| 20260506040046 | 51 | 105 | 1.7 | 2.6 | 0.00 | 0.07 | 0.00 | 88 | 1008.6 |
| 20260506034557 | 51 | 93 | 1.7 | 3.5 | 0.00 | 0.07 | 0.07 | 87 | 1008.7 |
| 20260506033044 | 51 | 106 | 1.7 | 2.6 | 0.00 | 0.07 | 0.07 | 87 | 1008.9 |
| 20260506031543 | 51 | 80 | 1.7 | 3.5 | 0.00 | 0.07 | 0.07 | 86 | 1008.8 |